Aérodrome :
LOGIN :

S'inscrire | Disclaimer

   EN    FR    IT 

 










Légende :    VFR   VFR Marginal   IFR   IFR Intensif   IFR Très Intensif
Visi : 
Plafond : 
>= 8 km
>= 3000ft
5 à 8 km
1000 à 3000 ft
1500m à 5 km
500 à 1000 ft
800 à 1500m
200 à 500 ft
< 800m
< 200 ft
Symboles :   Orages  Brouillard  Fortes neiges  Fortes précipitations  Vent > 20 kt
SIGMETs :   Divers  Orages  Givrage  Turbulence  Onde Orograph.  Cendres Volcan.







- Altitude de l'aérodrome : 598 ft
- Code IATA : BQH
- Voir les cartes d'approche


EGKB - Biggin Hill

DERNIER METAR :
  • 171520Z 21013KT 9999 FEW030 21/16 Q1012

METARs EXPIRÉS :
  • 171450Z 21015KT 9999 SCT025 22/16 Q1012
  • 171420Z 21014KT 9999 SCT025 22/16 Q1012
  • 171350Z 22014KT 9999 SCT025 22/16 Q1012
  • 171320Z 21013KT 190V250 9999 SCT025 21/16 Q1012
  • 171250Z 22013KT 190V260 9999 SCT020 21/16 Q1012
  • 171220Z 22012KT 190V250 9999 SCT020 21/16 Q1012

TAF TAF EGKB
Valide du 17 à 15h jusqu'au 17 à 22h UTC


171401Z 1715/1722 22012KT 9999 SCT020
PROB30
TEMPO 1715/1718 23015G25KT 7000 SHRA
Pas de NOTAMs connus pour ce terrain.



MET'MAP, la Météo Aéronautique d'un coup d'oeil ! - Copyright ORBIFLY Décembre 2007 - Disclaimer

ORBIFLY MET'MAP TEAM :

Programmation & Développement : Alexandra Zaïnal
Conception & Développement : Baudouin d'Aumeries
Co-Programmation & Développement : Marc-Olivier Méhu
Soutien technique & logistique : Manuel Goepfert

Contact : metmap@orbifly.com




SOURCES & CREDITS :

   NOAA